FENGYUN 1C DEB

Satellite information

Favourite Embed

Satellite Type and Status

DEBRISIN ORBIT

Key statistics

Satellite FENGYUN 1C DEB at a glance.

Uptime

9714

Days in orbit

Revolutions

≈ 14.3

Per day

Orbit

SSO

Sun Synchronous Orbit

Inclination

98.7

Latest

Satellite identification and parameters

Extended collection of information and parameters for FENGYUN 1C DEB.

Object identification

Identified? True

Debris? True

Object name: FENGYUN 1C DEB

International designator: 1999-025YV

Object number (NORAD): 30284

Object ID (CCSDS): 30284

Country: PEOPLES REPUBLIC OF CHINA (PRC)

Current information (Y/N): Y

RCS size: SMALL

Orbital parameters

Period: 100.787 minutes

Inclination: 98.7202 deg

SMA: 7174.048 km

Apoapsis: 823.015 km

Periapsis: 768.811 km

RAAN: 54.1141 deg

Eccentricy: 0.00377783

Argument of periapsis: 111.9212 deg

Mean anomaly: 42.5836 deg

Mean motion: 14.28750296 rev/day

Mean motion (dot): 0.00005696 rev/day2

B* drag term: 0.0022614863 1/REarth

Two-line elements (TLE)

Creation date: Dec. 12, 2025, 3:16 a.m.

Reference frame: TEME

Reference center: EARTH

Epoch: Dec. 11, 2025, 4:09 p.m. UTC

TLE line 0: 0 FENGYUN 1C DEB

TLE line 1: 1 30284U 99025YV 25345.67324836 .00005696 00000-0 22615-2 0 9994

TLE line 2: 2 30284 98.7202 54.1141 0037778 111.9212 42.5836 14.28750296975005

Live tracking on map

Real-time ground track for satellite FENGYUN 1C DEB.

In-orbit conjunctions

A list of the most updated potential collisions computed for object FENGYUN 1C DEB.

Target Orbit TCA Probability of collision Miss distance Type
AAU CUBESAT SSO 2025-09-28 19:51:29 0.0001839982 843.0 (m) PAYLOAD
COSMOS 1275 DEB LEO 2025-08-29 08:50:17 0.0001364197 82.0 (m) DEBRIS
COSMOS 2251 DEB LEO 2024-11-14 07:46:49 0.0001779242 277.0 (m) DEBRIS
CZ-6A DEB LEO 2024-11-06 11:27:24 0.0001355833 128.0 (m) DEBRIS

Associated space launch

Chinese polar orbiting meteorological satellite

FENGYUN 1C DEB was lifted into orbit during the mission ‘Long March 4B | Feng Yun 1C’, on board a Long March 4B space rocket.

The launch took place on May 10, 1999, 1:33 a.m. from Launch Complex 7.

For more information about the launch, click the button.

Launch to space Long March 4B | Feng Yun 1C
Long March 4B | Feng Yun 1C

Agency: N/A

Status: Launch Successful

Launch date: May 10, 1999, 1:33 a.m. UTC

Rocket: Long March 4B

Launch pad: Launch Complex 7

Location: Taiyuan Satellite Launch Center, People's Republic of China

...

Latest news about this satellite

There are no fresh news available about this satellite. Check back as we update our databases every day.


Newsletter sign-up

Weekly statistics, charts and insights to help you stay on top of the space industry.